Rome, NY

8:58 AM EDT on May 26, 2018 (GMT -0400)
Griffiss

Weather History for KRME - May, 2013

Change the Weather History Date:

Tuesday, May 7, 2013

  Actual Average Record
Temperature  
Mean Temperature 63 °F -  
Max Temperature 80 °F 65 °F 87 °F (1982)
Min Temperature 46 °F 43 °F 30 °F (2014)
Degree Days  
Heating Degree Days 2    
Growing Degree Days 13 (Base 50)    
Moisture  
Dew Point 45 °F    
Average Humidity 52    
Maximum Humidity 90    
Minimum Humidity 22    
Precipitation  
Precipitation 0.00 in - - ()
Sea Level Pressure  
Sea Level Pressure 30.09 in    
Wind  
Wind Speed 4 mph (ESE)    
Max Wind Speed 9 mph    
Max Gust Speed -    
Visibility 10 miles    
Events      
Averages and records for this station are not official NWS values.
T = Trace of Precipitation, MM = Missing Value Source: NWS Daily Summary

Daily Weather History Graph

Daily Weather History Graph

Search for Another Location

Airport or City:

Astronomy

May. 07, 2013 Rise Set
Actual Time 5:46 AM EDT 8:10 PM EDT
Civil Twilight 5:14 AM EDT 8:42 PM EDT
Nautical Twilight 4:35 AM EDT 9:22 PM EDT
Astronomical Twilight 3:51 AM EDT 10:06 PM EDT
Moon 4:23 AM EDT (5/7) 6:04 PM EDT (5/7)
Length of Visible Light 15h 27m
Length of Day
14h 23m
Waning Crescent, 5% of the Moon is Illuminated
May 7
Waning Crescent
May 9
New
May 18
First Quarter
May 25
Full
May 31
Last Quarter

Hourly Weather History & Observations

Time (EDT) Temp. Dew Point Humidity Pressure Visibility Wind Dir Wind Speed Gust Speed Precip Events Conditions
12:53 AM 55.9 °F 39.0 °F 53% 30.11 in 10.0 mi East 3.5 mph - N/A   Clear
1:53 AM 57.0 °F 43.0 °F 59% 30.11 in 10.0 mi East 6.9 mph - N/A   Clear
2:53 AM 55.9 °F 46.0 °F 69% 30.11 in 10.0 mi East 4.6 mph - N/A   Clear
3:53 AM 48.0 °F 43.0 °F 83% 30.13 in 10.0 mi Calm Calm - N/A   Clear
4:53 AM 46.9 °F 43.0 °F 86% 30.13 in 10.0 mi SE 3.5 mph - N/A   Clear
5:53 AM 46.9 °F 44.1 °F 90% 30.14 in 10.0 mi Calm Calm - N/A   Clear
6:53 AM 50.0 °F 46.0 °F 86% 30.14 in 10.0 mi SSE 4.6 mph - N/A   Clear
7:53 AM 57.0 °F 48.9 °F 74% 30.15 in 10.0 mi SSE 4.6 mph - N/A   Clear
8:53 AM 62.1 °F 51.1 °F 67% 30.15 in 10.0 mi SSE 4.6 mph - N/A   Clear
9:53 AM 66.9 °F 52.0 °F 59% 30.15 in 10.0 mi SSE 3.5 mph - N/A   Clear
10:53 AM 70.0 °F 52.0 °F 53% 30.14 in 10.0 mi SSW 4.6 mph - N/A   Clear
11:53 AM 72.0 °F 51.1 °F 48% 30.12 in 10.0 mi Variable 3.5 mph - N/A   Clear
12:53 PM 75.0 °F 46.9 °F 37% 30.11 in 10.0 mi Variable 4.6 mph - N/A   Clear
1:53 PM 78.1 °F 46.9 °F 33% 30.08 in 10.0 mi SSE 5.8 mph - N/A   Clear
2:53 PM 78.1 °F 44.1 °F 30% 30.06 in 10.0 mi North - - N/A   Clear
3:53 PM 80.1 °F 42.1 °F 26% 30.04 in 10.0 mi SSE 6.9 mph - N/A   Clear
4:53 PM 79.0 °F 37.0 °F 22% 30.03 in 10.0 mi Variable 4.6 mph - N/A   Clear
5:53 PM 79.0 °F 39.0 °F 24% 30.01 in 10.0 mi ESE 9.2 mph - N/A   Clear
6:53 PM 77.0 °F 41.0 °F 28% 30.02 in 10.0 mi ESE 6.9 mph - N/A   Clear
7:53 PM 73.0 °F 45.0 °F 37% 30.03 in 10.0 mi East 4.6 mph - N/A   Clear
8:53 PM 68.0 °F 44.1 °F 42% 30.05 in 10.0 mi ENE 8.1 mph - N/A   Clear
9:53 PM 68.0 °F 42.1 °F 39% 30.06 in 10.0 mi East 8.1 mph - N/A   Clear
10:53 PM 64.9 °F 42.1 °F 43% 30.07 in 10.0 mi East 6.9 mph - N/A   Clear
11:53 PM 61.0 °F 45.0 °F 56% 30.09 in 10.0 mi East 3.5 mph - N/A   Clear